Find OneWeb SL0301

NORAD ID: 49090 Int'l Des: 2021-075 Owner: ONEWEBN Country: UK Constellation: oneweb operational
LEOCIRCULARPOLARONEWEB_TYPE

Live Position

Loading 3D Globe...

About OneWeb SL0301

Description loading...

Upcoming Passes

Passes for default location (London). Set your location on the main map for personalized predictions.

Altitude History

Loading altitude history...

Two-Line Element Set

1 49090U 21075R 26124.09938248 .00000457 00000-0 12360-2 0 9995
2 49090 87.8984 359.4181 0002118 83.3696 276.7674 13.12444451228781
Epoch: May 4, 2026 • Age: 12 hours

Current Status

Altitude 1224.9 km
Velocity 7.25 km/s
Sub-Earth Point 73.31°N, 101.29°E
Launch Date Aug 21, 2021
Age 4.7 years
Type internet

Technical Details

Classification Payload
Mass 148.00 kg
Dry Mass 140.00 kg
Total Mass 148.00 kg
Length 1.30 m
Diameter 1.00 m
Span 5.00 m
Shape Trapezoid+2 pan
Manufacturer ONEWUS
Bus Type ARROW
Phase Status In Orbit
Owner/State ONEWEBN/UK

Most Searched